Location: Newark
(50.4348°N, 30.5552°E)
Time: 17:47:44
(UTC+00:00)

Altair - Pass Details

Date: 22 January 2020
Orbit: 1502 x 1682 km, 47.2° (Epoch: 25 February)

Event Time Altitude Azimuth Distance (km) Brightness Sun altitude
Rises 07:03:27 0° 217° (SW) 4,885 10.3 8.8°
Reaches altitude 10° 07:06:47 10° 211° (SSW) 3,915 9.9 9.1°
Maximum altitude 07:16:00 43° 145° (SE) 2,239 9.5 10.1°
Drops below altitude 10° 07:25:16 10° 79° (E) 3,938 10.1 11.1°
Sets 07:28:37 0° 73° (ENE) 4,917 10.4 11.4°
